This demonstration page uses our WeatherBlox Daily Observations layout. Learn more.

Left ArrowRight Arrow

Hourly Observations for December 12, 2019

Temp ( °F °C ) Dew Point ( °F °C ) Humidity (%) Winds ( mph kmh ) Pressure ( in mb ) Visibility ( mi km ) Precip ( " mm )
12:51 am 00:51 Clear 41 5 39 3.9 93 93 N N/A 30.17 1022 10 16 N/A
1:51 am 01:51 Clear 38 3.3 37 2.8 97 97 N N/A 30.17 1022 10 16 N/A
2:51 am 02:51 Clear 37 2.8 36 2.2 96 96 N N/A 30.18 1022 10 16 N/A
3:51 am 03:51 Clear 36 2.2 36 2.2 100 100 WNW 3 6 30.19 1022 10 16 N/A
4:51 am 04:51 Clear 37 2.8 35 1.7 93 93 N N/A 30.19 1022 10 16 N/A
5:51 am 05:51 Clear 35 1.7 34 1.1 96 96 N N/A 30.22 1023 10 16 N/A
6:51 am 06:51 Clear 36 2.2 35 1.7 97 97 N N/A 30.24 1024 10 16 N/A
7:51 am 07:51 Sunny 38 3.3 36 2.2 93 93 N N/A 30.26 1025 10 16 N/A
8:51 am 08:51 Sunny 44 6.7 40 4.4 85 85 N N/A 30.27 1025 10 16 N/A
9:51 am 09:51 Sunny 46 7.8 41 5 83 83 N N/A 30.27 1025 10 16 N/A
10:51 am 10:51 Sunny 50 10 41 5 71 71 N N/A 30.27 1025 10 16 N/A
11:51 am 11:51 Sunny 54 12.2 42 5.6 64 64 N N/A 30.23 1024 10 16 N/A
12:51 pm 12:51 Sunny 55 12.8 43 6.1 64 64 SW 5 7 30.19 1022 10 16 N/A
1:51 pm 13:51 Sunny 57 13.9 43 6.1 60 60 N N/A 30.16 1021 10 16 N/A
2:51 pm 14:51 Sunny 59 15 43 6.1 56 56 WNW 6 9 30.14 1021 10 16 N/A
3:51 pm 15:51 Sunny 59 15 44 6.7 58 58 W 9 15 30.14 1021 10 16 N/A
4:51 pm 16:51 Sunny 57 13.9 44 6.7 62 62 W 10 17 30.14 1021 10 16 N/A
5:51 pm 17:51 Clear 54 12.2 44 6.7 69 69 WNW 8 13 30.15 1021 10 16 N/A
6:51 pm 18:51 Clear 51 10.6 44 6.7 77 77 N N/A 30.17 1022 10 16 N/A
7:51 pm 19:51 Clear 48 8.9 44 6.7 86 86 N N/A 30.18 1022 10 16 N/A
8:51 pm 20:51 Clear 46 7.8 43 6.1 89 89 E 6 9 30.17 1022 10 16 N/A
9:51 pm 21:51 Clear 45 7.2 43 6.1 93 93 ESE 5 7 30.18 1022 10 16 N/A
10:51 pm 22:51 Clear 45 7.2 42 5.6 90 90 E 5 7 30.17 1022 10 16 N/A
11:51 pm 23:51 Clear 44 6.7 41 5 89 89 SE 5 7 30.15 1021 10 16 N/A

Powered by AerisWeather